TimePDT,TemperatureF,Dew PointF,Humidity,Sea Level PressureIn,VisibilityMPH,Wind Direction,Wind SpeedMPH,Gust SpeedMPH,PrecipitationIn,Events,Conditions,WindDirDegrees,DateUTC
12:15 AM,87.8,59.0,38,29.79,10.0,Calm,Calm,-,N/A,,Clear,0,2013-07-02 07:15:00
12:35 AM,86.0,60.8,43,29.79,10.0,Calm,Calm,-,N/A,,Clear,0,2013-07-02 07:35:00
12:55 AM,84.2,60.8,45,29.79,10.0,SSW,5.8,-,N/A,,Clear,200,2013-07-02 07:55:00
1:15 AM,84.2,59.0,42,29.80,10.0,South,3.5,-,N/A,,Clear,190,2013-07-02 08:15:00
1:35 AM,84.2,59.0,42,29.78,10.0,Calm,Calm,-,N/A,,Clear,0,2013-07-02 08:35:00
1:55 AM,82.4,59.0,45,29.78,10.0,Calm,Calm,-,N/A,,Clear,0,2013-07-02 08:55:00
2:15 AM,80.6,60.8,51,29.78,10.0,Calm,Calm,-,N/A,,Clear,0,2013-07-02 09:15:00
2:35 AM,82.4,60.8,48,29.78,10.0,WSW,3.5,-,N/A,,Clear,240,2013-07-02 09:35:00
2:55 AM,80.6,59.0,48,29.78,10.0,SW,4.6,-,N/A,,Clear,220,2013-07-02 09:55:00
3:15 AM,80.6,60.8,51,29.78,10.0,WSW,4.6,-,N/A,,Clear,240,2013-07-02 10:15:00
3:35 AM,78.8,60.8,54,29.77,10.0,West,4.6,-,N/A,,Clear,280,2013-07-02 10:35:00
3:55 AM,77.0,60.8,57,29.78,10.0,Calm,Calm,-,N/A,,Clear,0,2013-07-02 10:55:00
4:15 AM,77.0,60.8,57,29.77,10.0,Calm,Calm,-,N/A,,Clear,0,2013-07-02 11:15:00
4:35 AM,77.0,60.8,57,29.78,10.0,WSW,3.5,-,N/A,,Clear,240,2013-07-02 11:35:00
4:55 AM,77.0,60.8,57,29.77,10.0,SW,3.5,-,N/A,,Clear,220,2013-07-02 11:55:00
5:15 AM,77.0,60.8,57,29.77,10.0,SW,5.8,-,N/A,,Clear,220,2013-07-02 12:15:00
5:35 AM,77.0,60.8,57,29.78,10.0,South,3.5,-,N/A,,Clear,190,2013-07-02 12:35:00
5:55 AM,75.2,62.6,65,29.78,10.0,South,3.5,-,N/A,,Clear,190,2013-07-02 12:55:00
6:15 AM,75.2,62.6,65,29.79,10.0,South,8.1,-,N/A,,Clear,170,2013-07-02 13:15:00
6:35 AM,75.2,60.8,61,29.79,10.0,SSE,5.8,-,N/A,,Clear,160,2013-07-02 13:35:00
6:55 AM,75.2,62.6,65,29.79,9.0,SSE,5.8,-,N/A,,Clear,160,2013-07-02 13:55:00
7:15 AM,77.0,62.6,61,29.80,9.0,South,8.1,-,N/A,,Clear,180,2013-07-02 14:15:00
7:35 AM,78.8,60.8,54,29.80,10.0,SSE,5.8,-,N/A,,Clear,150,2013-07-02 14:35:00
7:55 AM,80.6,62.6,54,29.81,10.0,ESE,4.6,-,N/A,,Clear,120,2013-07-02 14:55:00
8:15 AM,82.4,62.6,51,29.82,10.0,SE,10.4,-,N/A,,Clear,130,2013-07-02 15:15:00
8:35 AM,82.4,60.8,48,29.82,10.0,SE,13.8,-,N/A,,Clear,140,2013-07-02 15:35:00
8:55 AM,84.2,59.0,42,29.83,10.0,SE,11.5,-,N/A,,Clear,130,2013-07-02 15:55:00
9:15 AM,86.0,59.0,40,29.83,10.0,South,6.9,-,N/A,,Clear,180,2013-07-02 16:15:00
9:35 AM,86.0,59.0,40,29.82,10.0,South,6.9,-,N/A,,Unknown,170,2013-07-02 16:35:00
9:55 AM,89.6,59.0,36,29.83,10.0,South,6.9,-,N/A,,Clear,170,2013-07-02 16:55:00
10:15 AM,91.4,59.0,34,29.83,10.0,South,10.4,-,N/A,,Clear,180,2013-07-02 17:15:00
10:35 AM,93.2,59.0,32,29.83,10.0,South,10.4,-,N/A,,Clear,190,2013-07-02 17:35:00
10:55 AM,93.2,57.2,30,29.84,10.0,South,13.8,-,N/A,,Clear,190,2013-07-02 17:55:00
11:15 AM,93.2,59.0,32,29.84,10.0,South,12.7,-,N/A,,Clear,180,2013-07-02 18:15:00
11:35 AM,93.2,59.0,32,29.84,10.0,South,10.4,-,N/A,,Clear,190,2013-07-02 18:35:00
11:55 AM,93.2,59.0,32,29.83,10.0,South,11.5,-,N/A,,Clear,180,2013-07-02 18:55:00
12:15 PM,95.0,57.2,28,29.83,9.0,South,12.7,-,N/A,,Clear,180,2013-07-02 19:15:00
12:35 PM,96.8,57.2,27,29.83,10.0,South,13.8,-,N/A,,Clear,180,2013-07-02 19:35:00
12:55 PM,98.6,57.2,25,29.83,10.0,SSW,13.8,-,N/A,,Clear,200,2013-07-02 19:55:00
1:15 PM,98.6,57.2,25,29.83,10.0,SSW,12.7,-,N/A,,Clear,200,2013-07-02 20:15:00
1:35 PM,100.4,55.4,22,29.83,10.0,South,11.5,-,N/A,,Clear,180,2013-07-02 20:35:00
1:55 PM,100.4,55.4,22,29.82,10.0,SSW,10.4,-,N/A,,Clear,200,2013-07-02 20:55:00
2:15 PM,100.4,57.2,24,29.81,10.0,South,9.2,-,N/A,,Clear,180,2013-07-02 21:15:00
2:35 PM,100.4,55.4,22,29.81,10.0,South,10.4,-,N/A,,Clear,180,2013-07-02 21:35:00
2:55 PM,100.4,55.4,22,29.81,10.0,SSE,13.8,-,N/A,,Clear,160,2013-07-02 21:55:00
3:15 PM,102.2,55.4,21,29.81,10.0,SSW,13.8,18.4,N/A,,Clear,200,2013-07-02 22:15:00
3:35 PM,104.0,53.6,19,29.81,10.0,South,13.8,19.6,N/A,,Clear,190,2013-07-02 22:35:00
3:55 PM,104.0,55.4,20,29.80,10.0,SSW,15.0,19.6,N/A,,Clear,200,2013-07-02 22:55:00
4:15 PM,104.0,53.6,19,29.81,10.0,South,15.0,20.7,N/A,,Clear,180,2013-07-02 23:15:00
4:35 PM,102.2,55.4,21,29.80,10.0,SSW,16.1,19.6,N/A,,Clear,200,2013-07-02 23:35:00
4:55 PM,100.4,57.2,24,29.80,10.0,SSW,13.8,-,N/A,,Clear,200,2013-07-02 23:55:00
5:15 PM,98.6,59.0,27,29.81,10.0,SSW,12.7,17.3,N/A,,Clear,200,2013-07-03 00:15:00
5:35 PM,98.6,59.0,27,29.80,10.0,SSW,15.0,-,N/A,,Clear,200,2013-07-03 00:35:00
5:55 PM,96.8,57.2,27,29.80,10.0,SSW,16.1,-,N/A,,Clear,200,2013-07-03 00:55:00
6:15 PM,96.8,57.2,27,29.80,10.0,SSW,13.8,17.3,N/A,,Clear,210,2013-07-03 01:15:00
6:35 PM,95.0,57.2,28,29.79,10.0,SSW,12.7,-,N/A,,Clear,200,2013-07-03 01:35:00
6:55 PM,95.0,55.4,26,29.79,10.0,SSW,16.1,19.6,N/A,,Clear,210,2013-07-03 01:55:00
7:15 PM,93.2,55.4,28,29.79,10.0,SSW,13.8,20.7,N/A,,Clear,200,2013-07-03 02:15:00
7:35 PM,93.2,55.4,28,29.80,10.0,SSE,10.4,-,N/A,,Clear,150,2013-07-03 02:35:00
7:55 PM,89.6,53.6,29,29.81,10.0,South,11.5,16.1,N/A,,Clear,170,2013-07-03 02:55:00
8:15 PM,87.8,53.6,31,29.81,10.0,South,10.4,-,N/A,,Clear,170,2013-07-03 03:15:00
8:35 PM,86.0,53.6,33,29.82,10.0,SSE,5.8,-,N/A,,Clear,160,2013-07-03 03:35:00
8:55 PM,84.2,53.6,35,29.83,10.0,SSE,10.4,-,N/A,,Clear,150,2013-07-03 03:55:00
9:15 PM,84.2,51.8,33,29.84,10.0,South,9.2,16.1,N/A,,Clear,170,2013-07-03 04:15:00
9:35 PM,82.4,51.8,35,29.84,10.0,SSE,13.8,18.4,N/A,,Clear,160,2013-07-03 04:35:00
9:55 PM,80.6,53.6,39,29.84,10.0,SSE,11.5,-,N/A,,Clear,160,2013-07-03 04:55:00
10:15 PM,80.6,53.6,39,29.84,10.0,South,13.8,-,N/A,,Clear,180,2013-07-03 05:15:00
10:35 PM,78.8,53.6,42,29.84,10.0,South,10.4,-,N/A,,Clear,190,2013-07-03 05:35:00
10:55 PM,78.8,51.8,39,29.83,10.0,South,13.8,-,N/A,,Clear,190,2013-07-03 05:55:00
11:15 PM,78.8,51.8,39,29.84,10.0,South,8.1,17.3,N/A,,Clear,170,2013-07-03 06:15:00
11:35 PM,77.0,51.8,41,29.85,10.0,SSE,9.2,-,N/A,,Clear,160,2013-07-03 06:35:00
11:55 PM,77.0,51.8,41,29.85,10.0,South,10.4,-,N/A,,Clear,170,2013-07-03 06:55:00